STARLINK-1998 (47593 NORAD) Tracking and Keplerian Element Data
This shows tracking and keplerian element data for the satellite.
Feedback or suggestion? Click here.
Element | Value |
Catalog | 47593 |
Name | STARLINK-1998 |
Epoch Orbit | 176 |
Epoch Day | 59.91667824 |
Epoch Year | 2021 |
RAAN | 3.031 |
Inclination | 53.0545 |
Eccentricity | 0.0001188 |
Argument of Perigee | 55.4447 |
Mean Anonmoly | 258.3518 |
Mean Motion | 15.59741318 |
Decay Rate | -0.00934281 |
L1 | 1 47593U 21009AX 21059.91667824 -.00934281 00000-0 -12635-1 0 9997 |
L2 | 2 47593 53.0545 3.0310 0001188 55.4447 258.3518 15.59741318 1766 |
Live tracking and technical data element details for STARLINK-1998 (NORAD 47593). STARLINK-1998 can be tracked NOW for your location showing map with azimuth and elevation plus other details from your city location.
Track the satellite on the map from your city or location and see movement details for azimuth, elevation, latitude, longitude, range, height, and movement on the map or in text.
IsCatalogInMostPopularTable: catalog: 47593, numindb: 4
Update: records affected: 1
GetName: 47593 STARLINK-1998
Hit Count: updated at: Mon, 01 Mar 2021 16:49:00 GMT